time (UTC),latitude (degrees_north),longitude (degrees_east),wind_speed,RelWindDirFrom,WindDirFrom,air_pressure,air_temperature,relative_humidity,Temp,platform_speed_wrt_ground,air_pressure_at_mean_sea_level,platform_orientation
2019-12-24T00:00:00Z,50.6304566666667,-96.980765,4.3,5.4,75,992.19,-10.1,87,0.78,0.0,1021.25,90.0
2019-12-24T00:10:00Z,50.6304583333333,-96.980765,5.2,6.2,71,991.86,-10.0,88,0.78,0.0,1020.91,90.0
2019-12-24T00:20:00Z,50.6304516666667,-96.9807783333333,5.3,6.4,53,991.83,-10.0,88,0.78,0.0,1020.89,90.0
2019-12-24T00:30:00Z,50.630455,-96.9807733333333,4.9,5.8,50,991.76,-10.0,88,0.78,0.0,1020.81,90.0
2019-12-24T00:40:00Z,50.630455,-96.98076,4.4,5.4,52,991.73,-9.8,86,0.78,0.0,1020.77,90.0
2019-12-24T00:50:00Z,50.630455,-96.9807616666667,2.9,4.3,62,991.76,-9.7,86,0.78,0.0,1020.81,90.0
2019-12-24T01:00:00Z,50.6304566666667,-96.9807633333333,3.2,4.0,56,991.66,-9.6,84,0.79,0.0,1020.7,90.0
2019-12-24T01:10:00Z,50.6304566666667,-96.9807666666667,4.9,6.3,60,991.28,-9.5,84,0.79,0.0,1020.31,90.0
2019-12-24T01:20:00Z,50.6304566666667,-96.9807683333333,6.0,7.3,58,990.84,-9.4,85,0.79,0.0,1019.85,90.0
2019-12-24T01:30:00Z,50.6304566666667,-96.9807683333333,5.9,7.4,48,990.68,-9.4,86,0.79,0.0,1019.67,90.0
2019-12-24T01:40:00Z,50.6304566666667,-96.9807666666667,5.9,7.1,58,990.46,-9.2,86,0.79,0.0,1019.43,90.0
2019-12-24T01:50:00Z,50.630455,-96.980765,6.0,7.8,58,990.41,-9.1,85,0.79,0.0,1019.38,90.0
2019-12-24T02:00:00Z,50.630455,-96.980765,5.9,6.8,56,990.23,-9.0,85,0.79,0.0,1019.18,360.0
2019-12-24T02:10:00Z,50.6304616666667,-96.98077,5.9,7.2,57,990.17,-9.0,85,0.79,0.0,1019.12,360.0
2019-12-24T02:20:00Z,50.63046,-96.9807616666667,7.1,8.2,70,989.79,-9.0,85,0.79,0.0,1018.72,360.0
2019-12-24T02:30:00Z,50.63046,-96.9807683333333,6.7,8.0,71,989.52,-9.1,85,0.8,0.0,1018.45,360.0
2019-12-24T02:40:00Z,50.630425,-96.980785,5.7,7.0,79,989.46,-9.0,85,0.81,0.0,1018.37,360.0
2019-12-24T02:50:00Z,50.6304466666667,-96.9807483333333,4.7,6.4,93,989.28,-9.0,85,0.82,0.0,1018.18,360.0
2019-12-24T03:00:00Z,50.6304516666667,-96.980755,5.7,6.6,98,989.11,-8.8,84,0.82,0.0,1017.99,90.0
2019-12-24T03:10:00Z,50.6304533333333,-96.9807566666667,6.2,6.9,101,989.01,-8.9,85,0.82,0.0,1017.88,90.0
2019-12-24T03:20:00Z,50.6304983333333,-96.9807916666667,6.1,7.7,104,988.92,-8.9,85,0.82,0.0,1017.79,90.0
2019-12-24T03:30:00Z,50.6304566666667,-96.9807666666667,8.5,9.9,113,988.64,-8.6,83,0.82,0.0,1017.48,90.0
2019-12-24T03:40:00Z,50.6304533333333,-96.98077,9.3,10.6,117,988.22,-8.2,82,0.81,0.0,1017.01,90.0
2019-12-24T03:50:00Z,50.6304416666667,-96.98077,9.1,10.9,121,987.88,-8.1,82,0.81,0.0,1016.66,90.0
2019-12-24T04:00:00Z,50.6304516666667,-96.9807866666667,8.8,10.5,116,987.6,-8.1,82,0.81,0.0,1016.37,270.0
2019-12-24T04:10:00Z,50.6304483333333,-96.9807683333333,5.9,8.2,116,987.49,-8.2,84,0.79,0.0,1016.26,270.0
2019-12-24T04:20:00Z,50.6304533333333,-96.9807666666667,4.7,7.2,144,987.57,-8.6,83,0.79,0.0,1016.37,270.0
2019-12-24T04:30:00Z,50.630455,-96.980765,6.3,7.8,144,987.29,-8.7,82,0.79,0.0,1016.09,270.0
2019-12-24T04:40:00Z,50.6304533333333,-96.980765,6.5,7.9,163,987.3,-8.8,82,0.78,0.0,1016.1,270.0
2019-12-24T04:50:00Z,50.6304533333333,-96.980765,8.3,12.3,162,987.3,-8.7,81,0.78,0.0,1016.08,270.0
2019-12-24T05:00:00Z,50.6304533333333,-96.980765,13.5,16.0,143,986.89,-8.4,79,0.78,0.0,1015.64,0.0
2019-12-24T05:10:00Z,50.630455,-96.9807666666667,12.8,16.0,148,986.94,-8.3,80,0.78,0.0,1015.7,0.0
2019-12-24T05:20:00Z,50.6304566666667,-96.9807683333333,10.4,12.8,152,986.98,-8.2,80,0.77,0.0,1015.71,0.0
2019-12-24T05:30:00Z,50.6304566666667,-96.98077,6.9,9.4,160,987.12,-8.3,81,0.77,0.0,1015.84,0.0
2019-12-24T05:40:00Z,50.63045,-96.9807633333333,6.3,7.5,166,987.08,-8.3,83,0.77,0.0,1015.79,0.0
2019-12-24T05:50:00Z,50.6304516666667,-96.980765,5.9,7.1,161,986.88,-8.3,83,0.77,0.0,1015.59,0.0
2019-12-24T06:00:00Z,50.6304316666667,-96.9807133333333,7.2,9.1,152,986.52,-8.4,83,0.76,0.0,1015.23,130.6
2019-12-24T06:10:00Z,50.6304633333333,-96.9807916666667,6.4,8.5,160,986.24,-8.5,84,0.76,0.0,1014.97,130.6
2019-12-24T06:20:00Z,50.6304616666667,-96.9807783333333,5.3,7.1,190,986.59,-8.6,85,0.76,0.0,1015.34,130.6
2019-12-24T06:30:00Z,50.6304616666667,-96.980775,7.3,9.5,184,986.6,-8.5,82,0.76,0.0,1015.34,130.6
2019-12-24T06:40:00Z,50.6304616666667,-96.9807733333333,7.4,9.7,194,986.84,-8.4,80,0.75,0.0,1015.58,130.6
2019-12-24T06:50:00Z,50.6304616666667,-96.980775,6.5,9.5,193,986.92,-8.2,78,0.75,0.0,1015.64,130.6
2019-12-24T07:00:00Z,50.6304616666667,-96.980775,3.8,4.6,196,986.91,-8.1,77,0.75,0.0,1015.62,49.4
2019-12-24T07:10:00Z,50.6304633333333,-96.980775,2.5,3.5,182,986.93,-8.2,77,0.75,0.0,1015.64,49.4
2019-12-24T07:20:00Z,50.6304716666667,-96.9807783333333,2.4,3.8,171,986.87,-8.2,76,0.75,0.0,1015.59,49.4
2019-12-24T07:30:00Z,50.63047,-96.9807716666667,2.8,3.4,138,986.64,-8.0,77,0.75,0.0,1015.34,49.4
2019-12-24T07:40:00Z,50.63047,-96.9807716666667,3.5,4.2,140,986.45,-8.4,78,0.75,0.0,1015.16,49.4
2019-12-24T07:50:00Z,50.6304666666667,-96.98077,4.6,5.1,139,986.18,-8.3,77,0.76,0.0,1014.89,49.4
2019-12-24T08:00:00Z,50.6304683333333,-96.9807683333333,4.4,5.2,137,986.13,-8.3,78,0.75,0.0,1014.84,360.0
2019-12-24T08:10:00Z,50.63047,-96.9808133333333,4.5,4.9,126,986.13,-8.2,82,0.75,0.0,1014.83,360.0
2019-12-24T08:20:00Z,50.6304716666667,-96.9807816666667,4.2,5.0,115,986.19,-8.5,86,0.75,0.0,1014.92,360.0
2019-12-24T08:30:00Z,50.6304683333333,-96.9807783333333,5.7,6.6,118,986.12,-8.7,88,0.75,0.0,1014.85,360.0
2019-12-24T08:40:00Z,50.6304683333333,-96.9807783333333,6.4,6.9,123,986.06,-8.8,88,0.75,0.0,1014.77,360.0
2019-12-24T08:50:00Z,50.6304466666667,-96.98077,6.6,7.1,123,985.89,-8.8,88,0.75,0.0,1014.6,360.0
2019-12-24T09:00:00Z,50.63046,-96.9807666666667,6.5,7.5,131,985.76,-8.8,88,0.75,0.0,1014.47,311.3
2019-12-24T09:10:00Z,50.63046,-96.980765,5.3,6.9,154,985.86,-9.4,87,0.75,0.0,1014.6,311.3
2019-12-24T09:20:00Z,50.63046,-96.98077,5.4,6.8,157,985.84,-9.2,86,0.75,0.0,1014.57,311.3
2019-12-24T09:30:00Z,50.6304633333333,-96.9807883333333,4.7,5.6,154,985.69,-9.3,88,0.75,0.0,1014.43,311.3
2019-12-24T09:40:00Z,50.63046,-96.980755,4.3,5.5,163,985.62,-9.2,87,0.74,0.0,1014.36,311.3
2019-12-24T09:50:00Z,50.630455,-96.98076,3.9,4.2,168,985.38,-9.3,88,0.74,0.0,1014.11,311.3
2019-12-24T10:00:00Z,50.630465,-96.9807733333333,4.2,5.0,166,985.26,-9.4,88,0.74,0.0,1013.99,38.0
2019-12-24T10:10:00Z,50.6304633333333,-96.9807683333333,3.2,4.4,181,985.39,-9.5,89,0.74,0.0,1014.14,38.0
2019-12-24T10:20:00Z,50.6304616666667,-96.9807683333333,3.6,4.3,194,985.52,-9.5,88,0.74,0.0,1014.29,38.0
2019-12-24T10:30:00Z,50.6304633333333,-96.9807716666667,4.2,5.0,194,985.5,-9.6,89,0.75,0.0,1014.27,38.0
2019-12-24T10:40:00Z,50.6304616666667,-96.980775,4.6,5.3,187,985.29,-9.7,90,0.76,0.0,1014.06,38.0
2019-12-24T10:50:00Z,50.63046,-96.9807616666667,3.4,4.5,196,985.21,-9.7,89,0.78,0.0,1013.98,38.0
2019-12-24T11:00:00Z,50.6304633333333,-96.9807616666667,2.5,3.4,203,985.03,-9.7,88,0.78,0.0,1013.83,131.7
2019-12-24T11:10:00Z,50.630465,-96.9807566666667,2.4,3.7,199,984.97,-9.8,88,0.78,0.0,1013.77,131.7
2019-12-24T11:20:00Z,50.6304866666667,-96.9807666666667,3.5,4.3,193,984.89,-9.9,87,0.76,0.0,1013.7,131.7
2019-12-24T11:30:00Z,50.63046,-96.9807733333333,3.9,4.7,191,984.77,-10.2,88,0.76,0.0,1013.58,131.7
2019-12-24T11:40:00Z,50.6304616666667,-96.98077,4.4,5.6,184,984.68,-10.4,89,0.76,0.0,1013.51,131.7
2019-12-24T11:50:00Z,50.6304616666667,-96.9807683333333,5.1,5.7,179,984.62,-10.6,89,0.76,0.0,1013.46,131.7
2019-12-24T12:00:00Z,50.6304633333333,-96.9807716666667,4.5,4.9,184,984.64,-10.9,90,0.77,0.0,1013.5,347.4
2019-12-24T12:10:00Z,50.6304633333333,-96.9807683333333,4.6,5.4,195,984.75,-11.0,91,0.77,0.0,1013.62,347.4
2019-12-24T12:20:00Z,50.630445,-96.9807383333333,4.8,6.5,221,984.99,-10.9,90,0.77,0.0,1013.87,347.4
2019-12-24T12:30:00Z,50.6304716666667,-96.9807616666667,5.5,7.8,227,985.03,-11.1,90,0.77,0.0,1013.92,347.4
2019-12-24T12:40:00Z,50.6304466666667,-96.980775,5.5,8.0,234,985.03,-11.3,90,0.78,0.0,1013.94,347.4
2019-12-24T12:50:00Z,50.6304616666667,-96.980765,5.2,6.9,248,985.11,-11.5,90,0.78,0.0,1014.03,347.4
2019-12-24T13:00:00Z,50.6304633333333,-96.9807683333333,5.4,7.1,247,985.13,-11.8,90,0.77,0.0,1014.08,131.7
2019-12-24T13:10:00Z,50.6304616666667,-96.9807666666667,4.9,6.6,244,985.24,-11.9,91,0.77,0.0,1014.2,131.7
2019-12-24T13:20:00Z,50.6304616666667,-96.980765,4.7,6.5,237,985.16,-11.9,91,0.77,0.0,1014.13,131.7
2019-12-24T13:30:00Z,50.6304616666667,-96.9807666666667,5.1,6.4,233,985.03,-11.9,91,0.76,0.0,1014.0,131.7
2019-12-24T13:40:00Z,50.63046,-96.980765,5.5,7.8,234,984.94,-11.9,90,0.76,0.0,1013.93,131.7
2019-12-24T13:50:00Z,50.6304616666667,-96.980765,5.8,7.1,234,984.99,-12.0,90,0.76,0.0,1014.0,131.7
2019-12-24T14:00:00Z,50.6304833333333,-96.9808,5.9,7.4,235,985.08,-12.0,90,0.76,0.0,1014.1,299.2
2019-12-24T14:10:00Z,50.630465,-96.9807716666667,5.6,7.3,243,984.93,-12.0,90,0.76,0.0,1013.94,299.2
2019-12-24T14:20:00Z,50.63046,-96.9807716666667,6.0,7.8,245,984.96,-12.0,90,0.76,0.0,1013.98,299.2
2019-12-24T14:30:00Z,50.630455,-96.98077,6.1,7.6,244,985.05,-12.2,90,0.76,0.0,1014.1,299.2
2019-12-24T14:40:00Z,50.630455,-96.9807666666667,5.8,7.3,241,985.09,-12.3,91,0.75,0.0,1014.15,299.2
2019-12-24T14:50:00Z,50.6304533333333,-96.9807666666667,6.3,8.0,242,985.31,-12.2,90,0.75,0.0,1014.39,299.2
2019-12-24T15:00:00Z,50.6304533333333,-96.9807666666667,6.2,8.3,250,985.51,-12.1,89,0.75,0.0,1014.6,360.0
2019-12-24T15:10:00Z,50.6304533333333,-96.9807666666667,5.8,7.4,253,985.56,-12.0,88,0.75,0.0,1014.65,360.0
2019-12-24T15:20:00Z,50.6304733333333,-96.9807916666667,5.5,8.0,254,985.72,-12.0,88,0.75,0.0,1014.81,360.0
2019-12-24T15:30:00Z,50.6304533333333,-96.98079,4.7,6.7,251,985.79,-12.0,88,0.75,0.0,1014.88,360.0
2019-12-24T15:40:00Z,50.630455,-96.98078,5.2,6.9,246,986.08,-11.9,88,0.74,0.0,1015.18,360.0
2019-12-24T15:50:00Z,50.6304566666667,-96.9807783333333,5.6,7.4,249,986.36,-11.6,88,0.74,0.0,1015.45,360.0
2019-12-24T16:00:00Z,50.6304583333333,-96.9807866666667,5.0,8.5,261,986.41,-11.0,88,0.74,0.0,1015.48,252.3
2019-12-24T16:10:00Z,50.6304666666667,-96.980795,4.8,7.5,281,986.37,-10.5,88,0.74,0.0,1015.4,252.3
2019-12-24T16:20:00Z,50.6304616666667,-96.98077,5.3,9.8,287,986.35,-10.1,88,0.74,0.0,1015.37,252.3
2019-12-24T16:30:00Z,50.6304616666667,-96.980765,4.9,7.3,287,986.4,-9.8,88,0.74,0.0,1015.42,252.3
2019-12-24T16:40:00Z,50.630455,-96.980765,4.6,6.9,284,986.45,-9.6,87,0.75,0.0,1015.45,252.3
2019-12-24T16:50:00Z,50.630455,-96.9807633333333,4.0,6.4,279,986.41,-9.5,86,0.75,0.0,1015.39,252.3
2019-12-24T17:00:00Z,50.6304683333333,-96.9807916666667,4.3,6.9,274,986.34,-9.3,86,0.75,0.0,1015.31,138.7
2019-12-24T17:10:00Z,50.630455,-96.9807733333333,4.2,5.8,250,986.48,-9.2,85,0.74,0.0,1015.45,138.7
2019-12-24T17:20:00Z,50.6304583333333,-96.9807666666667,4.2,6.6,269,986.36,-9.0,85,0.73,0.0,1015.31,138.7
2019-12-24T17:30:00Z,50.630425,-96.98079,4.8,6.6,248,986.46,-8.9,85,0.72,0.0,1015.4,138.7
2019-12-24T17:40:00Z,50.6304566666667,-96.9807666666667,5.1,7.4,247,986.51,-8.8,86,0.72,0.0,1015.43,138.7
2019-12-24T17:50:00Z,50.6304333333333,-96.9807783333333,5.0,7.1,258,986.51,-8.6,86,0.72,0.0,1015.39,138.7
2019-12-24T18:00:00Z,50.6304416666667,-96.9807616666667,4.7,7.6,265,986.37,-8.4,86,0.72,0.0,1015.2,165.5
2019-12-24T18:10:00Z,50.6304483333333,-96.9807583333333,4.7,7.2,277,986.22,-8.2,86,0.72,0.0,1015.01,165.5
2019-12-24T18:20:00Z,50.6304483333333,-96.9807566666667,4.6,6.4,284,986.12,-8.0,86,0.72,0.0,1014.88,165.5
2019-12-24T18:30:00Z,50.6304516666667,-96.9807566666667,5.8,9.6,299,985.94,-7.7,85,0.72,0.0,1014.67,165.5
2019-12-24T18:40:00Z,50.6304733333333,-96.9807866666667,6.5,9.6,305,985.84,-7.7,85,0.72,0.0,1014.56,165.5
2019-12-24T18:50:00Z,50.6304666666667,-96.9807716666667,5.9,8.7,303,985.9,-7.7,85,0.72,0.0,1014.61,165.5
2019-12-24T19:00:00Z,50.6304633333333,-96.98077,5.9,8.7,306,986.07,-7.6,85,0.72,0.0,1014.78,72.3
2019-12-24T19:10:00Z,50.6304616666667,-96.98077,5.8,12.1,315,986.1,-7.6,85,0.72,0.0,1014.79,72.3
2019-12-24T19:20:00Z,50.6304583333333,-96.98077,9.1,14.8,306,986.02,-7.6,85,0.72,0.0,1014.71,72.3
2019-12-24T19:30:00Z,50.6304566666667,-96.9807683333333,8.5,12.3,302,986.18,-7.7,85,0.72,0.0,1014.87,72.3
2019-12-24T19:40:00Z,50.6304566666667,-96.980765,7.0,11.3,313,986.45,-7.7,85,0.72,0.0,1015.14,72.3
2019-12-24T19:50:00Z,50.6304533333333,-96.9807633333333,8.2,13.4,308,986.56,-7.9,85,0.72,0.0,1015.25,72.3
2019-12-24T20:00:00Z,50.6304516666667,-96.9807633333333,9.0,14.2,303,986.6,-8.0,85,0.72,0.0,1015.29,131.6
2019-12-24T20:10:00Z,50.6304516666667,-96.9807666666667,7.0,10.1,285,986.6,-8.1,84,0.72,0.0,1015.28,131.6
2019-12-24T20:20:00Z,50.6304516666667,-96.9807683333333,6.8,9.9,308,986.63,-8.0,84,0.72,0.0,1015.3,131.6
2019-12-24T20:30:00Z,50.6304533333333,-96.9807683333333,6.3,9.3,317,986.77,-8.0,83,0.73,0.0,1015.44,131.6
2019-12-24T20:40:00Z,50.6304533333333,-96.98077,7.3,10.4,310,986.81,-8.2,82,0.73,0.0,1015.48,131.6
2019-12-24T20:50:00Z,50.6304533333333,-96.98077,6.4,8.2,313,986.94,-8.2,81,0.73,0.0,1015.61,131.6
2019-12-24T21:00:00Z,50.6304533333333,-96.9807716666667,6.4,11.7,321,987.1,-8.1,79,0.74,0.0,1015.77,323.4
2019-12-24T21:10:00Z,50.63044,-96.9807916666667,5.7,8.1,324,986.98,-8.1,78,0.74,0.0,1015.65,323.4
2019-12-24T21:20:00Z,50.6304516666667,-96.9807816666667,4.4,6.5,330,987.0,-8.0,79,0.74,0.0,1015.68,323.4
2019-12-24T21:30:00Z,50.6304516666667,-96.9807766666667,4.3,6.8,306,987.13,-8.0,79,0.74,0.0,1015.81,323.4
2019-12-24T21:40:00Z,50.6304583333333,-96.9807683333333,5.0,7.5,318,987.21,-8.0,79,0.73,0.0,1015.9,323.4
2019-12-24T21:50:00Z,50.630455,-96.9807683333333,5.1,7.4,302,987.34,-8.0,79,0.73,0.0,1016.04,323.4
2019-12-24T22:00:00Z,50.630455,-96.9807716666667,4.3,7.0,296,987.55,-8.0,79,0.73,0.0,1016.26,360.0
2019-12-24T22:10:00Z,50.630455,-96.98077,4.5,6.5,296,987.85,-8.0,78,0.73,0.0,1016.57,360.0
2019-12-24T22:20:00Z,50.630455,-96.9807666666667,5.0,7.7,291,987.94,-8.0,79,0.74,0.0,1016.66,360.0
2019-12-24T22:30:00Z,50.6304533333333,-96.980765,5.3,8.1,304,987.88,-8.0,79,0.74,0.0,1016.61,360.0
2019-12-24T22:40:00Z,50.6304383333333,-96.9807416666667,5.7,8.2,303,987.82,-8.1,79,0.74,0.0,1016.55,360.0
2019-12-24T22:50:00Z,50.6304466666667,-96.980755,4.9,7.0,307,987.8,-8.1,79,0.74,0.0,1016.52,360.0
2019-12-24T23:00:00Z,50.630455,-96.9807583333333,5.4,8.1,315,987.84,-8.1,79,0.75,0.0,1016.56,90.0
2019-12-24T23:10:00Z,50.63045,-96.980745,4.9,8.0,316,987.92,-8.1,79,0.75,0.0,1016.64,90.0
2019-12-24T23:20:00Z,50.6304533333333,-96.9807533333333,5.0,8.6,325,987.77,-8.1,79,0.89,0.0,1016.49,90.0
2019-12-24T23:30:00Z,50.6304783333333,-96.98076,6.3,8.3,338,987.41,-8.1,79,0.75,0.0,1016.11,90.0
2019-12-24T23:40:00Z,50.6304733333333,-96.9807566666667,5.0,8.6,338,987.5,-8.1,79,0.75,0.0,1016.21,90.0
2019-12-24T23:50:00Z,50.6304666666667,-96.9807616666667,5.4,7.7,327,987.52,-8.1,79,0.76,0.0,1016.23,90.0
2019-12-25T00:00:00Z,50.6304666666667,-96.9807466666667,5.8,9.7,330,987.42,-8.1,79,0.76,0.0,1016.13,43.0
2019-12-25T00:10:00Z,50.630455,-96.9807883333333,4.6,6.8,323,987.53,-8.1,79,0.77,0.0,1016.24,43.0
2019-12-25T00:20:00Z,50.6304583333333,-96.980775,4.6,6.9,318,987.54,-8.1,78,0.77,0.0,1016.25,43.0
2019-12-25T00:30:00Z,50.6304533333333,-96.980755,5.6,8.0,330,987.32,-8.1,78,0.77,0.0,1016.03,43.0
2019-12-25T00:40:00Z,50.6304533333333,-96.9807516666667,4.7,7.6,335,987.47,-8.1,79,0.77,0.0,1016.18,43.0
2019-12-25T00:50:00Z,50.630455,-96.980755,4.8,6.7,333,987.66,-8.0,79,0.77,0.0,1016.38,43.0
2019-12-25T01:00:00Z,50.6304516666667,-96.9808016666667,5.2,6.9,341,987.83,-8.0,79,0.77,0.0,1016.55,270.0
2019-12-25T01:10:00Z,50.6304533333333,-96.9807683333333,4.0,5.9,333,987.96,-8.0,78,0.77,0.0,1016.68,270.0
2019-12-25T01:20:00Z,50.63046,-96.9807683333333,4.2,6.2,330,988.13,-8.0,79,0.77,0.0,1016.86,270.0
2019-12-25T01:30:00Z,50.6304583333333,-96.980765,5.1,7.5,337,988.22,-8.0,79,0.77,0.0,1016.95,270.0
2019-12-25T01:40:00Z,50.6304566666667,-96.98076,5.4,8.6,330,988.2,-8.0,79,0.77,0.0,1016.93,270.0
2019-12-25T01:50:00Z,50.6304566666667,-96.9807583333333,6.8,9.1,349,988.1,-7.9,79,0.77,0.0,1016.83,270.0
2019-12-25T02:00:00Z,50.6304566666667,-96.9807566666667,6.1,9.4,345,988.28,-7.9,80,0.77,0.0,1017.01,0.0
2019-12-25T02:10:00Z,50.6304633333333,-96.9807516666667,5.5,7.8,341,988.38,-8.0,79,0.76,0.0,1017.12,0.0
2019-12-25T02:20:00Z,50.6304616666667,-96.980755,6.8,9.8,357,988.06,-7.9,80,0.76,0.0,1016.78,0.0
2019-12-25T02:30:00Z,50.63046,-96.9807583333333,9.3,11.4,4,987.73,-8.0,82,0.76,0.0,1016.44,0.0
2019-12-25T02:40:00Z,50.63044,-96.9807483333333,6.4,9.8,360,988.2,-8.0,83,0.77,0.0,1016.92,0.0
2019-12-25T02:50:00Z,50.6304483333333,-96.980745,5.2,6.9,356,988.72,-7.9,83,0.76,0.0,1017.46,0.0
2019-12-25T03:00:00Z,50.63045,-96.9807483333333,8.2,10.5,10,988.39,-7.9,82,0.76,0.0,1017.12,203.5
2019-12-25T03:10:00Z,50.6304483333333,-96.9807483333333,9.7,11.1,12,988.09,-8.0,82,0.75,0.0,1016.81,203.5
2019-12-25T03:20:00Z,50.63046,-96.980775,10.3,12.3,11,988.0,-8.0,83,0.75,0.0,1016.71,203.5
2019-12-25T03:30:00Z,50.6304533333333,-96.980765,9.9,11.8,13,988.32,-8.0,83,0.75,0.0,1017.05,203.5
2019-12-25T03:40:00Z,50.6304433333333,-96.9807716666667,8.6,11.0,10,988.58,-8.0,84,0.75,0.0,1017.31,203.5
2019-12-25T03:50:00Z,50.630455,-96.9807766666667,7.1,9.0,6,988.96,-8.0,83,0.75,0.0,1017.7,203.5
2019-12-25T04:00:00Z,50.6304566666667,-96.98077,6.5,7.8,12,988.99,-8.0,84,0.75,0.0,1017.74,90.0
2019-12-25T04:10:00Z,50.6304616666667,-96.980775,7.0,8.6,11,988.83,-8.0,84,0.75,0.0,1017.57,90.0
2019-12-25T04:20:00Z,50.6304616666667,-96.980765,7.0,8.5,27,988.74,-8.0,86,0.75,0.0,1017.48,90.0
2019-12-25T04:30:00Z,50.63046,-96.9807633333333,10.3,13.4,24,988.38,-8.0,86,0.75,0.0,1017.11,90.0
2019-12-25T04:40:00Z,50.63046,-96.980765,12.3,13.9,21,987.82,-8.1,86,0.75,0.0,1016.53,90.0
2019-12-25T04:50:00Z,50.63046,-96.9807633333333,11.5,13.3,18,988.0,-8.2,87,0.75,0.0,1016.72,90.0
2019-12-25T05:00:00Z,50.63046,-96.98076,11.4,13.9,20,988.14,-8.2,86,0.75,0.0,1016.87,360.0
2019-12-25T05:10:00Z,50.63046,-96.98076,9.3,11.2,21,988.38,-8.2,87,0.75,0.0,1017.12,360.0
2019-12-25T05:20:00Z,50.630465,-96.9807566666667,8.3,10.5,10,988.63,-8.2,86,0.75,0.0,1017.38,360.0
2019-12-25T05:30:00Z,50.6304566666667,-96.9807633333333,6.8,8.6,7,988.77,-8.2,87,0.75,0.0,1017.52,360.0
2019-12-25T05:40:00Z,50.6304633333333,-96.9807233333333,7.8,9.1,27,988.53,-8.2,88,0.75,0.0,1017.28,360.0
2019-12-25T05:50:00Z,50.630455,-96.9807383333333,7.4,9.1,24,988.61,-8.2,88,0.75,0.0,1017.36,360.0
2019-12-25T06:00:00Z,50.6304633333333,-96.9808033333333,7.0,8.5,25,988.57,-8.3,88,0.75,0.0,1017.32,287.3
2019-12-25T06:10:00Z,50.630465,-96.9807783333333,6.7,8.7,30,988.79,-8.2,89,0.75,0.0,1017.54,287.3
2019-12-25T06:20:00Z,50.630465,-96.9807716666667,5.6,6.9,32,988.96,-8.2,88,0.75,0.0,1017.71,287.3
2019-12-25T06:30:00Z,50.630465,-96.9807683333333,5.1,6.3,32,989.05,-8.2,89,0.76,0.0,1017.81,287.3
2019-12-25T06:40:00Z,50.630465,-96.9807666666667,5.7,6.9,33,989.0,-8.2,89,0.76,0.0,1017.77,287.3
2019-12-25T06:50:00Z,50.630465,-96.9807666666667,5.8,7.0,33,988.95,-8.2,90,0.76,0.0,1017.71,287.3
2019-12-25T07:00:00Z,50.6304666666667,-96.9807683333333,6.9,7.8,32,988.73,-8.2,90,0.76,0.0,1017.49,360.0
2019-12-25T07:10:00Z,50.63048,-96.9807683333333,6.4,7.9,41,988.77,-8.1,91,0.76,0.0,1017.53,360.0
2019-12-25T07:20:00Z,50.6304866666667,-96.9807466666667,6.0,7.7,38,988.86,-8.1,91,0.76,0.0,1017.62,360.0
2019-12-25T07:30:00Z,50.6304833333333,-96.9807616666667,6.7,8.2,37,988.74,-8.1,92,0.76,0.0,1017.5,360.0
2019-12-25T07:40:00Z,50.6304816666667,-96.980765,7.2,9.1,38,988.53,-8.1,93,0.76,0.0,1017.28,360.0
2019-12-25T07:50:00Z,50.63048,-96.980765,6.9,8.2,47,988.6,-8.1,94,0.76,0.0,1017.36,360.0
2019-12-25T08:00:00Z,50.6304716666667,-96.980755,7.3,9.1,41,988.67,-8.2,94,0.76,0.0,1017.43,360.0
2019-12-25T08:10:00Z,50.630495,-96.9807833333333,7.3,8.7,47,988.83,-8.1,95,0.75,0.0,1017.59,360.0
2019-12-25T08:20:00Z,50.63048,-96.98077,6.4,8.1,39,989.09,-8.1,96,0.75,0.0,1017.86,360.0
2019-12-25T08:30:00Z,50.6304766666667,-96.9807716666667,6.0,8.3,28,989.02,-8.2,96,0.75,0.0,1017.79,360.0
2019-12-25T08:40:00Z,50.6304766666667,-96.98077,6.9,8.6,34,988.95,-8.2,97,0.74,0.0,1017.72,360.0
2019-12-25T08:50:00Z,50.630465,-96.9807633333333,7.1,8.2,35,989.09,-8.2,97,0.74,0.0,1017.85,360.0
2019-12-25T09:00:00Z,50.6304666666667,-96.980755,6.2,7.2,25,989.09,-8.2,97,0.73,0.0,1017.86,80.0
2019-12-25T09:10:00Z,50.6304716666667,-96.98076,7.1,8.5,27,989.01,-8.2,97,0.73,0.0,1017.77,80.0
2019-12-25T09:20:00Z,50.63047,-96.98076,6.7,8.3,22,989.0,-8.2,97,0.74,0.0,1017.76,80.0
2019-12-25T09:30:00Z,50.6304733333333,-96.98077,8.2,10.2,26,988.86,-8.2,98,0.74,0.0,1017.62,80.0
2019-12-25T09:40:00Z,50.63047,-96.9807516666667,9.1,10.4,28,988.6,-8.2,98,0.74,0.0,1017.35,80.0
2019-12-25T09:50:00Z,50.6304733333333,-96.98076,8.3,10.2,26,988.55,-8.2,98,0.74,0.0,1017.3,80.0
2019-12-25T10:00:00Z,50.6304716666667,-96.9807583333333,8.5,10.5,29,988.61,-8.1,98,0.74,0.0,1017.36,12.6
2019-12-25T10:10:00Z,50.63047,-96.98076,7.9,9.1,25,988.58,-8.1,98,0.74,0.0,1017.33,12.6
2019-12-25T10:20:00Z,50.63047,-96.98076,8.2,9.3,18,988.49,-8.1,98,0.74,0.0,1017.24,12.6
2019-12-25T10:30:00Z,50.63048,-96.98077,9.3,10.7,18,988.33,-8.1,98,0.74,0.0,1017.07,12.6
2019-12-25T10:40:00Z,50.63046,-96.9807616666667,9.0,10.7,16,988.27,-8.0,98,0.74,0.0,1017.0,12.6
2019-12-25T10:50:00Z,50.63046,-96.9807583333333,10.1,12.0,22,988.24,-7.9,98,0.73,0.0,1016.97,12.6
2019-12-25T11:00:00Z,50.6304633333333,-96.9807583333333,9.9,11.6,30,988.22,-7.9,98,0.73,0.0,1016.95,360.0
2019-12-25T11:10:00Z,50.6304633333333,-96.980755,10.2,12.1,31,988.16,-7.8,99,0.73,0.0,1016.88,360.0
2019-12-25T11:20:00Z,50.630465,-96.980755,10.0,11.7,34,988.16,-7.8,99,0.73,0.0,1016.88,360.0
2019-12-25T11:30:00Z,50.630465,-96.9807583333333,9.9,11.8,37,988.26,-7.7,99,0.74,0.0,1016.98,360.0
2019-12-25T11:40:00Z,50.630465,-96.9807583333333,9.9,12.1,41,988.3,-7.7,99,0.75,0.0,1017.02,360.0
2019-12-25T11:50:00Z,50.630465,-96.98076,8.8,10.5,43,988.29,-7.7,99,0.75,0.0,1017.01,360.0
2019-12-25T12:00:00Z,50.6304766666667,-96.9807666666667,9.5,11.3,43,988.26,-7.6,99,0.75,0.0,1016.97,345.5
2019-12-25T12:10:00Z,50.6305183333333,-96.98079,9.4,11.3,41,988.28,-7.6,99,0.75,0.0,1016.99,345.5
2019-12-25T12:20:00Z,50.6304766666667,-96.98076,8.9,10.5,40,988.26,-7.6,99,0.75,0.0,1016.97,345.5
2019-12-25T12:30:00Z,50.63048,-96.9807683333333,9.2,11.1,43,988.15,-7.5,99,0.75,0.0,1016.84,345.5
2019-12-25T12:40:00Z,50.6304583333333,-96.9807683333333,9.5,11.1,44,988.13,-7.5,99,0.75,0.0,1016.83,345.5
2019-12-25T12:50:00Z,50.63046,-96.9807633333333,9.2,11.5,47,988.03,-7.5,99,0.75,0.0,1016.72,345.5
2019-12-25T13:00:00Z,50.6304616666667,-96.9807683333333,9.2,10.5,54,987.94,-7.5,99,0.75,0.0,1016.62,194.5
2019-12-25T13:10:00Z,50.6304633333333,-96.980765,8.6,10.0,56,988.0,-7.5,99,0.75,0.0,1016.67,194.5
2019-12-25T13:20:00Z,50.6304633333333,-96.9807666666667,8.7,10.3,50,987.89,-7.5,99,0.74,0.0,1016.56,194.5
2019-12-25T13:30:00Z,50.630465,-96.980765,8.3,9.9,52,987.8,-7.4,99,0.75,0.0,1016.47,194.5
2019-12-25T13:40:00Z,50.6304766666667,-96.9807683333333,7.5,9.9,39,987.69,-7.4,99,0.75,0.0,1016.35,194.5
2019-12-25T13:50:00Z,50.6304783333333,-96.9807616666667,8.4,9.7,40,987.5,-7.4,99,0.74,0.0,1016.15,194.5
2019-12-25T14:00:00Z,50.6304883333333,-96.980775,8.9,10.0,43,987.36,-7.3,99,0.74,0.0,1016.0,339.9
2019-12-25T14:10:00Z,50.6304583333333,-96.9807483333333,8.4,10.2,44,987.44,-7.3,99,0.74,0.0,1016.08,339.9
2019-12-25T14:20:00Z,50.6304716666667,-96.9807833333333,9.5,10.8,47,987.37,-7.2,99,0.74,0.0,1016.0,339.9
2019-12-25T14:30:00Z,50.6304683333333,-96.9807716666667,7.9,9.5,37,987.37,-7.2,99,0.73,0.0,1016.0,339.9
2019-12-25T14:40:00Z,50.6304666666667,-96.980765,7.8,9.4,44,987.52,-7.1,99,0.72,0.0,1016.15,339.9
2019-12-25T14:50:00Z,50.6304666666667,-96.980765,7.4,9.1,52,987.61,-7.0,99,0.71,0.0,1016.23,339.9
2019-12-25T15:00:00Z,50.6304666666667,-96.9807666666667,7.3,9.1,57,987.77,-6.9,99,0.7,0.0,1016.4,360.0
2019-12-25T15:10:00Z,50.6304666666667,-96.980765,6.8,8.5,59,988.01,-6.9,99,0.69,0.0,1016.64,360.0
2019-12-25T15:20:00Z,50.630465,-96.9807666666667,6.8,8.4,59,988.2,-6.7,99,0.69,0.0,1016.83,360.0